Location: Igon
(43.1667°N, 0.2333°W)
Time: 21:41:17
(UTC+00:00)

Milstar 3 Cent rocket - Pass Details

Date: 29 November 2020
Orbit: 706 x 5147 km, 28.3° (Epoch: 18 January)

Event Time Altitude Azimuth Distance (km) Brightness Sun altitude
Exits shadow 04:00:21 26° 178° (S) 2,178 4.2 -34.2°
Maximum altitude 04:01:30 27° 163° (SSE) 2,263 4.4 -34.0°
Drops below altitude 10° 04:09:54 10° 112° (ESE) 4,468 6.6 -32.4°
Sets 04:15:36 0° 102° (ESE) 6,278 7.8 -31.4°
